Content
SEND FEEDBACK

Daily
Averages
Monthly
Summary
Turkmenistan

ASHGABAT, TURKMENISTAN


Home > Asia > Turkmenistan
Elevation: 775 feet     Latitude: 37 58N     Longitude: 058 20E

WEATHER
 
SELECT A DAY
Number of Records: 180,375;   Date Range: 3/15/97 - 9/29/14
 
SHARE

PRINT THIS DATA

[ ← Previous Day ]
WEATHER ALMANAC - MAY 10, 2013
[ Next Day → ]
[ °C ]   °F
Weather ElementAverageHighLow
Temperature69.9 °F80.6 °F (4:00 pm)59 °F (5:00 am)
Dewpoint37 °F49 °F (8:00 am)26.6 °F (3:00 pm)
Humidity29.9 %49 % (7:00 am)14 % (4:00 pm)
Barometer30.09 in30.16 in (11:00 pm)30.01 in (2:00 am)
Wind Speed10.2 mph17.9 mph (7:00 am)
Weather ElementAverage
Visibility6.1 mi
Wind DirectionSSW (218.4 °)

Weather ElementTotal
Precipitation---
Cooling Degree Days4.8 (Base 65)
Growing Degree Days19.8 (Base 50)
Averaged from 37 records on May 10, 2013
WEATHER CONDITIONS BREAKOUT
WIND DIRECTION BREAKOUT
WEATHER BY HOUR - MAY 10, 2013
[ °C ]   °F
Local TimeTemperatureDewpointHumidityBarometerVisibilityWind DirectionWind SpeedGust SpeedPrecipitationEventsConditions
1:00 AM68.0 °F37.4 °F33 %30.04 in6.2 miWest (270°)4.5 mphScattered Clouds
2:00 AM68.0 °F47.0 °F35 %30.04 in6.0 miNorth (10°)4.5 mph
2:00 AM66.2 °F35.6 °F32 %30.01 in6.2 miNNE (20°)2.2 mphClear
3:00 AM64.4 °F33.8 °F32 %30.04 in6.2 miNorth (10°)8.9 mphClear
4:00 AM60.8 °F35.6 °F39 %30.04 in6.2 miWNW (300°)4.5 mphClear
4:30 AM60.8 °F35.6 °F39 %30.04 in6.2 miNW (310°)6.7 mphClear
5:00 AM59.0 °F35.6 °F42 %30.04 in6.2 miNW (320°)6.7 mphClear
5:30 AM60.8 °F33.8 °F36 %30.06 in6.2 miNNW (330°)6.7 mphClear
6:00 AM60.8 °F32.0 °F34 %30.06 in6.2 miWest (280°)8.9 mphMostly Cloudy
6:30 AM64.4 °F41.0 °F42 %30.09 in6.2 miWNW (290°)13.4 mphMostly Cloudy
7:00 AM66.2 °F46.4 °F49 %30.09 in6.2 miWNW (290°)17.9 mphMostly Cloudy
7:30 AM66.2 °F46.4 °F49 %30.09 in6.2 miWNW (290°)17.9 mphMostly Cloudy
8:00 AM67.0 °F49.0 °F41 %30.12 in6.0 miWNW (300°)17.9 mphBlowing Sand
8:00 AM68.0 °F46.4 °F46 %30.09 in6.2 miWNW (300°)17.9 mphMostly Cloudy
8:30 AM68.0 °F44.6 °F43 %30.09 in6.2 miWNW (300°)17.9 mphMostly Cloudy
9:00 AM69.8 °F42.8 °F38 %30.09 in6.2 miWNW (300°)17.9 mphOvercast
9:30 AM69.8 °F41.0 °F35 %30.12 in6.2 miWNW (300°)15.7 mphOvercast
10:00 AM69.8 °F41.0 °F35 %30.12 in6.2 miWNW (290°)17.9 mphMostly Cloudy
11:00 AM71.6 °F37.4 °F29 %30.12 in6.2 miNW (310°)13.4 mphOvercast
11:00 AM72.0 °F44.0 °F25 %30.12 in6.0 miNW (310°)11.2 mphOvercast
12:00 PM71.6 °F33.8 °F25 %30.12 in6.2 miNW (310°)6.7 mphOvercast
1:00 PM75.2 °F35.6 °F24 %30.12 in6.2 miWNW (290°)11.2 mphMostly Cloudy
2:00 PM78.0 °F44.0 °F20 %30.11 in6.0 miNW (310°)11.2 mphScattered Clouds
2:00 PM77.0 °F28.4 °F17 %30.12 in6.2 miNNW (330°)6.7 mphMostly Cloudy
3:00 PM78.8 °F26.6 °F15 %30.09 in6.2 miWest (280°)8.9 mphScattered Clouds
4:00 PM80.6 °F26.6 °F14 %30.09 in6.2 miWSW (240°)6.7 mphMostly Cloudy
5:00 PM79.0 °F42.0 °F17 %30.07 in6.0 miWest (280°)11.2 mphPartly Cloudy
5:00 PM78.8 °F28.4 °F16 %30.09 in6.2 miWest (270°)8.9 mphMostly Cloudy
6:00 PM77.0 °F26.6 °F16 %30.09 in5.6 miENE (60°)8.9 mphMostly Cloudy
7:00 PM77.0 °F28.4 °F17 %30.09 in6.2 miNNE (20°)6.7 mphMostly Cloudy
7:30 PM73.4 °F30.2 °F20 %30.09 in5.6 miNNE (30°)17.9 mphMostly Cloudy
8:00 PM73.0 °F43.0 °F23 %30.11 in6.0 miNE (40°)11.2 mphPartly Cloudy
8:00 PM73.4 °F30.2 °F20 %30.12 in6.2 miNE (40°)8.9 mphMostly Cloudy
9:00 PM69.8 °F30.2 °F23 %30.12 in6.2 miNorth (10°)4.5 mphMostly Cloudy
10:00 PM66.2 °F32.0 °F28 %30.15 in6.2 miWSW (240°)4.5 mphMostly Cloudy
11:00 PM67.0 °F45.0 °F33 %30.16 in6.0 miEast (100°)4.5 mphOvercast
11:00 PM68.0 °F32.0 °F26 %30.15 in5.6 miEast (100°)4.5 mphOvercast
Hourly data recorded from UTAA, located miles away from Ashgabat, Turkmenistan







STORIES FROM OUR PARTNERS